Weather History for Hurlburt Field, FL

Change the Weather History Date:

Saturday, September 21, 2013

  Actual Average Record
Temperature  
Mean Temperature 78 °F -  
Max Temperature 82 °F 84 °F 136 °F (2003)
Min Temperature 73 °F 67 °F 56 °F (2006)
Cooling Degree Days 12    
Growing Degree Days 28 (Base 50)    
Moisture  
Dew Point 72 °F    
Average Humidity 83    
Maximum Humidity 94    
Minimum Humidity 70    
Precipitation  
Precipitation 0.48 in - - ()
Sea Level Pressure  
Sea Level Pressure 29.80 in    
Wind  
Wind Speed 10 mph (South)    
Max Wind Speed 17 mph    
Max Gust Speed 26 mph    
Visibility 8 miles    
Events Rain , Thunderstorm    
Averages and records for this station are not official NWS values.
T = Trace of Precipitation, MM = Missing Value Source: NWS Daily Summary

Daily Weather History Graph

Daily Weather History Graph

Search for Another Location

Airport:

Trip Planner

Search our weather history database for the weather conditions in past years. The results will help you decide how hot, cold, wet, or windy it might be!

Date:

Astronomy

Sep. 21, 2013 Rise Set
Actual Time 6:34 AM CDT 6:44 PM CDT
Civil Twilight 6:10 AM CDT 7:08 PM CDT
Nautical Twilight 5:42 AM CDT 7:36 PM CDT
Astronomical Twilight 5:14 AM CDT 8:04 PM CDT
Moon 8:08 PM CDT (9/21) 8:40 AM CDT (9/21)
Length of Visible Light 12h 57m
Length of Day
12h 09m
Waning Gibbous, 94% of the Moon is Illuminated
Sep 21
Waning Gibbous
Sep 26
Last Quarter
Oct 4
New
Oct 11
First Quarter
Oct 18
Full

Hourly Weather History & Observations

Time (CDT) Temp. Heat Index Dew Point Humidity Pressure Visibility Wind Dir Wind Speed Gust Speed Precip Events Conditions
12:08 AM 82.4 °F 87.2 °F 71.6 °F 70% 29.87 in 10.0 mi SSE 13.8 mph - N/A   Mostly Cloudy
12:58 AM 82.2 °F 87.3 °F 72.5 °F 72% 29.86 in 10.0 mi SE 15.0 mph - N/A   Mostly Cloudy
1:03 AM 82.4 °F 88.2 °F 73.4 °F 74% 29.85 in 10.0 mi SSE 13.8 mph - N/A   Mostly Cloudy
1:53 AM 82.4 °F 87.2 °F 71.6 °F 70% 29.83 in 10.0 mi SSE 15.0 mph 24.2 mph N/A   Mostly Cloudy
1:58 AM 82.4 °F 87.2 °F 71.6 °F 70% 29.84 in 10.0 mi SSE 17.3 mph 24.2 mph N/A   Overcast
2:13 AM 82.4 °F 87.2 °F 71.6 °F 70% 29.83 in 10.0 mi SSE 17.3 mph - N/A   Overcast
2:58 AM 81.9 °F 86.4 °F 71.8 °F 71% 29.83 in 10.0 mi South 16.1 mph - N/A   Clear
3:58 AM 81.7 °F 85.8 °F 71.2 °F 70% 29.82 in 10.0 mi South 15.0 mph - N/A   Partly Cloudy
4:50 AM 80.6 °F 85.4 °F 73.4 °F 79% 29.80 in 10.0 mi SSW 13.8 mph 21.9 mph N/A Rain Light Rain
4:55 AM 80.6 °F 85.4 °F 73.4 °F 79% 29.80 in 9.0 mi SSW 11.5 mph - N/A Rain Light Rain
4:58 AM 80.1 °F 84.6 °F 74.1 °F 82% 29.81 in 9.0 mi SSW 11.5 mph - 0.00 in Rain Light Rain
5:00 AM 80.6 °F 85.4 °F 73.4 °F 79% 29.80 in 9.0 mi South 10.4 mph 19.6 mph N/A   Mostly Cloudy
5:30 AM 82.4 °F 87.2 °F 71.6 °F 70% 29.81 in 10.0 mi South 15.0 mph - N/A Rain Light Rain
5:40 AM 80.6 °F 85.4 °F 73.4 °F 79% 29.80 in 10.0 mi South 12.7 mph - N/A Rain Light Rain
5:43 AM 80.6 °F 85.4 °F 73.4 °F 79% 29.80 in 10.0 mi South 13.8 mph - N/A   Mostly Cloudy
5:53 AM 80.6 °F 84.6 °F 71.6 °F 74% 29.80 in 10.0 mi SSE 16.1 mph - N/A   Mostly Cloudy
5:58 AM 81.5 °F 86.3 °F 72.3 °F 74% 29.81 in 10.0 mi SSE 15.0 mph - 0.00 in   Mostly Cloudy
6:53 AM 82.4 °F 88.2 °F 73.4 °F 74% 29.81 in 10.0 mi South 17.3 mph - N/A   Overcast
6:58 AM 82.0 °F 87.2 °F 72.5 °F 73% 29.82 in 10.0 mi South 17.3 mph 26.5 mph N/A   Overcast
6:59 AM 80.6 °F 85.4 °F 73.4 °F 79% 29.81 in 10.0 mi SSW 17.3 mph 26.5 mph N/A Rain Light Rain
7:09 AM 78.8 °F - 73.4 °F 83% 29.80 in 2.5 mi South 5.8 mph - N/A Rain Light Rain
7:18 AM 78.8 °F - 73.4 °F 83% 29.81 in 2.0 mi WNW 5.8 mph - N/A Rain , Thunderstorm Light Thunderstorms and Rain
7:23 AM 80.6 °F 85.4 °F 73.4 °F 79% 29.81 in 2.0 mi Variable 3.5 mph - N/A Rain , Thunderstorm Light Thunderstorms and Rain
7:28 AM 80.6 °F 85.4 °F 73.4 °F 79% 29.81 in 5.0 mi WNW 4.6 mph - N/A Rain , Thunderstorm Light Thunderstorms and Rain
7:33 AM 80.6 °F 85.4 °F 73.4 °F 79% 29.81 in 6.0 mi Variable 6.9 mph - N/A Rain Light Rain
7:38 AM 78.8 °F - 73.4 °F 83% 29.81 in 1.8 mi SW 5.8 mph - N/A Rain Rain
7:43 AM 78.8 °F - 73.4 °F 83% 29.81 in 1.5 mi West 8.1 mph - N/A Rain Light Rain
7:48 AM 78.8 °F - 73.4 °F 83% 29.81 in 1.8 mi WNW 6.9 mph - N/A Rain Light Rain
7:53 AM 77.0 °F - 73.4 °F 89% 29.82 in 1.5 mi WNW 6.9 mph - N/A Rain Light Rain
7:58 AM 77.5 °F - 73.8 °F 88% 29.83 in 1.2 mi Variable 5.8 mph - 0.12 in Rain Light Rain
8:03 AM 77.0 °F - 73.4 °F 89% 29.82 in 0.8 mi SSW 6.9 mph 21.9 mph N/A Rain Rain
8:08 AM 77.0 °F - 71.6 °F 83% 29.81 in 1.0 mi SW 8.1 mph 21.9 mph N/A Rain Light Rain
8:13 AM 77.0 °F - 71.6 °F 83% 29.82 in 2.5 mi SW 8.1 mph - N/A Rain Light Rain
8:18 AM 77.0 °F - 71.6 °F 83% 29.82 in 5.0 mi WSW 5.8 mph - N/A Rain Light Rain
8:31 AM 77.0 °F - 73.4 °F 89% 29.82 in 10.0 mi SSW 6.9 mph - N/A   Overcast
8:58 AM 79.0 °F - 73.8 °F 84% 29.83 in 10.0 mi SE 8.1 mph - 0.10 in   Overcast
9:03 AM 78.8 °F - 73.4 °F 83% 29.82 in 10.0 mi SSE 10.4 mph - N/A   Overcast
9:13 AM 78.8 °F - 73.4 °F 83% 29.81 in 10.0 mi SSE 11.5 mph - N/A   Mostly Cloudy
9:28 AM 80.6 °F 85.4 °F 73.4 °F 79% 29.82 in 10.0 mi NNW 10.4 mph - N/A   Mostly Cloudy
9:43 AM 78.8 °F - 73.4 °F 83% 29.83 in 10.0 mi Variable 3.5 mph - N/A   Mostly Cloudy
9:58 AM 77.2 °F - 72.7 °F 86% 29.85 in 10.0 mi WNW 13.8 mph - N/A Thunderstorm Overcast
9:59 AM 77.0 °F - 71.6 °F 83% 29.84 in 10.0 mi WNW 13.8 mph 20.7 mph N/A Thunderstorm Thunderstorm
10:02 AM 77.0 °F - 71.6 °F 83% 29.84 in 10.0 mi NW 12.7 mph 20.7 mph N/A Rain , Thunderstorm Light Thunderstorms and Rain
10:04 AM 77.0 °F - 71.6 °F 83% 29.84 in 10.0 mi NNW 12.7 mph 20.7 mph N/A Rain , Thunderstorm Light Thunderstorms and Rain
10:19 AM 75.2 °F - 69.8 °F 83% 29.84 in 2.5 mi NW 8.1 mph - N/A Rain , Thunderstorm Light Thunderstorms and Rain
10:22 AM 75.2 °F - 69.8 °F 83% 29.84 in 3.0 mi Variable 6.9 mph - N/A Rain Light Rain
10:32 AM 73.4 °F - 69.8 °F 88% 29.84 in 2.0 mi Variable 4.6 mph - N/A Rain Heavy Rain
10:37 AM 73.4 °F - 69.8 °F 88% 29.84 in 1.0 mi Variable 1.2 mph - N/A Rain Heavy Rain
10:47 AM 73.4 °F - 71.6 °F 94% 29.84 in 2.0 mi WNW 1.2 mph - N/A Rain Light Rain
10:52 AM 75.2 °F - 71.6 °F 89% 29.83 in 5.0 mi Calm Calm - N/A Rain Light Rain
10:58 AM 74.3 °F - 71.2 °F 90% 29.83 in 10.0 mi East 4.6 mph - 0.16 in Rain Rain
11:11 AM 75.2 °F - 69.8 °F 83% 29.82 in 10.0 mi East 5.8 mph - N/A   Mostly Cloudy
11:45 AM 77.0 °F - 71.6 °F 83% 29.81 in 10.0 mi South 6.9 mph - N/A Rain Light Rain
11:56 AM 78.8 °F - 73.4 °F 83% 29.80 in 10.0 mi Variable 3.5 mph - N/A   Scattered Clouds
11:58 AM 78.4 °F - 72.5 °F 82% 29.81 in 10.0 mi Variable 3.5 mph - 0.02 in   Scattered Clouds
12:03 PM 78.8 °F - 73.4 °F 83% 29.80 in 10.0 mi SSW 4.6 mph - N/A   Mostly Cloudy
12:08 PM 78.8 °F - 73.4 °F 83% 29.80 in 10.0 mi South 6.9 mph - N/A   Scattered Clouds
12:14 PM 78.8 °F - 73.4 °F 83% 29.80 in 10.0 mi South 9.2 mph - N/A   Light Drizzle
12:38 PM 78.8 °F - 71.6 °F 78% 29.79 in 10.0 mi SSW 6.9 mph - N/A   Scattered Clouds
12:58 PM 80.2 °F 84.2 °F 72.1 °F 76% 29.80 in 10.0 mi SSW 4.6 mph - 0.00 in   Mostly Cloudy
1:58 PM 81.0 °F 85.8 °F 73.0 °F 77% 29.78 in 10.0 mi SSW 5.8 mph - N/A   Partly Cloudy
2:32 PM 82.4 °F 87.2 °F 71.6 °F 70% 29.76 in 10.0 mi NNW 16.1 mph 25.3 mph N/A Thunderstorm Scattered Clouds
2:37 PM 78.8 °F - 71.6 °F 78% 29.76 in 10.0 mi NW 13.8 mph 25.3 mph N/A Rain , Thunderstorm Light Rain
2:58 PM 75.6 °F - 71.8 °F 88% 29.76 in 10.0 mi NNW 8.1 mph - 0.04 in Rain Light Rain
3:04 PM 75.2 °F - 71.6 °F 89% 29.75 in 10.0 mi NNW 6.9 mph - N/A   Scattered Clouds
3:24 PM 75.2 °F - 71.6 °F 89% 29.75 in 10.0 mi NW 5.8 mph - N/A Rain Light Rain
3:58 PM 76.1 °F - 72.5 °F 89% 29.76 in 10.0 mi North 5.8 mph - 0.01 in Rain Light Rain
4:05 PM 77.0 °F - 71.6 °F 83% 29.75 in 10.0 mi North 3.5 mph - N/A   Partly Cloudy
4:09 PM 77.0 °F - 71.6 °F 83% 29.75 in 10.0 mi North 4.6 mph - N/A   Light Drizzle
4:13 PM 77.0 °F - 73.4 °F 89% 29.75 in 10.0 mi NNW 4.6 mph - N/A   Clear
4:45 PM 77.0 °F - 73.4 °F 89% 29.73 in 10.0 mi North 5.8 mph - N/A   Light Drizzle
4:53 PM 77.0 °F - 73.4 °F 89% 29.74 in 10.0 mi North 5.8 mph - N/A   Partly Cloudy
4:58 PM 77.5 °F - 72.9 °F 85% 29.75 in 10.0 mi NNE 6.9 mph - 0.00 in   Scattered Clouds
5:23 PM 77.0 °F - 71.6 °F 83% 29.74 in 10.0 mi North 6.9 mph - N/A   Light Drizzle
5:32 PM 77.0 °F - 71.6 °F 83% 29.74 in 10.0 mi NNW 5.8 mph - N/A   Scattered Clouds
5:39 PM 77.0 °F - 71.6 °F 83% 29.74 in 10.0 mi North 3.5 mph - N/A   Light Drizzle
5:58 PM 76.8 °F - 72.5 °F 86% 29.75 in 10.0 mi NE 3.5 mph - 0.00 in Rain Light Rain
6:58 PM 75.9 °F - 72.7 °F 90% 29.75 in 10.0 mi ENE 4.6 mph - 0.02 in   Light Drizzle
7:44 PM 75.2 °F - 73.4 °F 94% 29.75 in 10.0 mi East 3.5 mph - N/A   Clear
7:47 PM 75.2 °F - 73.4 °F 94% 29.75 in 10.0 mi ENE 3.5 mph - N/A Rain Light Rain
7:58 PM 75.7 °F - 72.7 °F 90% 29.75 in 10.0 mi East 3.5 mph - 0.01 in Rain Light Rain
7:59 PM 75.2 °F - 73.4 °F 94% 29.75 in 10.0 mi East 3.5 mph - N/A   Partly Cloudy
8:21 PM 75.2 °F - 73.4 °F 94% 29.75 in 10.0 mi SE 2.3 mph - N/A Rain Light Rain
8:36 PM 75.2 °F - 73.4 °F 94% 29.75 in 10.0 mi East 3.5 mph - N/A   Clear
8:58 PM 75.7 °F - 73.0 °F 91% 29.77 in 10.0 mi Calm Calm - 0.00 in   Scattered Clouds
9:38 PM 75.2 °F - 71.6 °F 89% 29.76 in 10.0 mi ENE 1.2 mph - N/A Rain Light Rain
9:53 PM 75.2 °F - 73.4 °F 94% 29.76 in 10.0 mi ENE 2.3 mph - N/A   Partly Cloudy
9:58 PM 75.4 °F - 72.7 °F 91% 29.77 in 10.0 mi NE 2.3 mph - 0.00 in   Scattered Clouds
10:37 PM 75.2 °F - 73.4 °F 94% 29.76 in 10.0 mi ESE 2.3 mph - N/A Rain Light Rain
10:58 PM 75.6 °F - 72.7 °F 91% 29.77 in 10.0 mi ESE 4.6 mph - 0.00 in Rain Light Rain
11:35 PM 75.2 °F - 73.4 °F 94% 29.76 in 10.0 mi East 3.5 mph - N/A   Partly Cloudy
11:58 PM 75.9 °F - 72.9 °F 90% 29.76 in 10.0 mi ESE 3.5 mph - 0.00 in   Mostly Cloudy